Weather History for KAQW - September, 2013

Change the Weather History Date:

Wednesday, September 11, 2013

  Actual Average Record
Temperature  
Mean Temperature 76 °F -  
Max Temperature 91 °F 72 °F 91 °F (2013)
Min Temperature 62 °F 50 °F 37 °F (2005)
Cooling Degree Days 12    
Growing Degree Days 26 (Base 50)    
Moisture  
Dew Point 67 °F    
Average Humidity 87    
Maximum Humidity 100    
Minimum Humidity 45    
Precipitation  
Precipitation 0.42 in - - ()
Sea Level Pressure  
Sea Level Pressure 30.06 in    
Wind  
Wind Speed 1 mph (West)    
Max Wind Speed 20 mph    
Max Gust Speed 32 mph    
Visibility 4 miles    
Events Fog , Rain , Thunderstorm    
Averages and records for this station are not official NWS values.
T = Trace of Precipitation, MM = Missing Value Source: NWS Daily Summary

Daily Weather History Graph

Daily Weather History Graph

Search for Another Location

Airport or City:

Trip Planner

Search our weather history database for the weather conditions in past years. The results will help you decide how hot, cold, wet, or windy it might be!

Date:

Astronomy

Sep. 11, 2013 Rise Set
Actual Time 6:28 AM EDT 7:09 PM EDT
Civil Twilight 5:59 AM EDT 7:37 PM EDT
Nautical Twilight 5:26 AM EDT 8:11 PM EDT
Astronomical Twilight 4:51 AM EDT 8:46 PM EDT
Moon 1:02 PM EDT (9/11) 10:53 PM EDT (9/11)
Length of Visible Light 13h 37m
Length of Day
12h 40m
Waxing Crescent, 38% of the Moon is Illuminated
Sep 11
Waxing Crescent
Sep 12
First Quarter
Sep 19
Full
Sep 26
Last Quarter
Oct 4
New

Hourly Weather History & Observations

Time (EDT) Temp. Heat Index Dew Point Humidity Pressure Visibility Wind Dir Wind Speed Gust Speed Precip Events Conditions
12:13 AM 68.0 °F - 68.0 °F 100% 30.06 in 2.5 mi Calm Calm - N/A   Clear
12:52 AM 66.0 °F - 66.0 °F 100% 30.07 in 2.0 mi Calm Calm - N/A   Clear
1:33 AM 66.2 °F - 64.4 °F 94% 30.07 in 1.2 mi Calm Calm - N/A   Clear
1:38 AM 66.2 °F - 64.4 °F 94% 30.07 in 1.0 mi Calm Calm - N/A   Mist
1:49 AM 64.4 °F - 64.4 °F 100% 30.06 in 1.5 mi Calm Calm - N/A   Partly Cloudy
1:52 AM 64.9 °F - 64.0 °F 97% 30.06 in 1.8 mi Calm Calm - N/A   Partly Cloudy
2:30 AM 64.4 °F - 64.4 °F 100% 30.07 in 1.2 mi Calm Calm - N/A   Clear
2:34 AM 64.4 °F - 64.4 °F 100% 30.07 in 1.5 mi Calm Calm - N/A   Partly Cloudy
2:52 AM 64.9 °F - 64.0 °F 97% 30.07 in 2.0 mi Calm Calm - N/A   Mostly Cloudy
3:15 AM 64.4 °F - 64.4 °F 100% 30.07 in 1.2 mi Calm Calm - N/A   Overcast
3:24 AM 64.4 °F - 64.4 °F 100% 30.07 in 0.2 mi Calm Calm - N/A Fog Fog
3:52 AM 64.0 °F - 64.0 °F 100% 30.07 in 0.5 mi Calm Calm - N/A Fog Fog
4:16 AM 64.4 °F - 62.6 °F 94% 30.07 in 1.0 mi Calm Calm - N/A   Mist
4:24 AM 64.4 °F - 62.6 °F 94% 30.07 in 1.0 mi Calm Calm - N/A   Mist
4:32 AM 64.4 °F - 62.6 °F 94% 30.07 in 0.5 mi Calm Calm - N/A Fog Fog
4:52 AM 64.0 °F - 63.0 °F 96% 30.07 in 0.5 mi Calm Calm - N/A Fog Fog
5:02 AM 64.4 °F - 62.6 °F 94% 30.07 in 1.5 mi Calm Calm - N/A   Mostly Cloudy
5:06 AM 64.4 °F - 62.6 °F 94% 30.08 in 1.2 mi Calm Calm - N/A   Scattered Clouds
5:11 AM 64.4 °F - 62.6 °F 94% 30.08 in 0.2 mi Calm Calm - N/A Fog Fog
5:39 AM 64.4 °F - 62.6 °F 94% 30.08 in 0.8 mi Calm Calm - N/A   Mist
5:52 AM 63.0 °F - 63.0 °F 100% 30.08 in 0.5 mi Calm Calm - N/A Fog Fog
6:06 AM 62.6 °F - 62.6 °F 100% 30.08 in 0.2 mi Calm Calm - N/A Fog Fog
6:43 AM 62.6 °F - 62.6 °F 100% 30.09 in 0.8 mi Calm Calm - 0.01 in   Overcast
6:52 AM 63.0 °F - 62.1 °F 97% 30.10 in 0.2 mi Calm Calm - 0.01 in Fog Fog
7:52 AM 66.0 °F - 64.9 °F 96% 30.10 in 0.2 mi Calm Calm - N/A Fog Fog
8:35 AM 68.0 °F - 66.2 °F 94% 30.10 in 1.0 mi Calm Calm - N/A   Overcast
8:44 AM 69.8 °F - 66.2 °F 88% 30.10 in 2.0 mi Calm Calm - N/A   Mostly Cloudy
8:52 AM 69.1 °F - 66.9 °F 93% 30.09 in 3.0 mi Calm Calm - N/A   Scattered Clouds
9:52 AM 78.1 °F - 70.0 °F 76% 30.08 in 6.0 mi Calm Calm - N/A   Haze
10:52 AM 87.1 °F 92.0 °F 70.0 °F 57% 30.06 in 9.0 mi NW 4.6 mph - N/A   Clear
11:52 AM 88.0 °F 92.1 °F 69.1 °F 53% 30.04 in 9.0 mi SW 6.9 mph - N/A   Clear
12:52 PM 90.0 °F 94.5 °F 69.1 °F 50% 30.03 in 9.0 mi Variable 3.5 mph - N/A   Clear
1:52 PM 90.0 °F 94.5 °F 69.1 °F 50% 30.01 in 10.0 mi SW 6.9 mph - N/A   Clear
2:52 PM 91.0 °F 94.3 °F 66.9 °F 45% 30.00 in 10.0 mi WSW 4.6 mph - N/A   Clear
3:52 PM 91.0 °F 95.2 °F 68.0 °F 47% 29.98 in 10.0 mi Variable 4.6 mph - N/A   Clear
4:52 PM 88.0 °F 90.7 °F 66.9 °F 49% 29.96 in 10.0 mi SSW 6.9 mph - N/A   Clear
5:52 PM 82.0 °F 87.4 °F 73.0 °F 74% 29.96 in 7.0 mi Calm Calm - N/A   Clear
6:52 PM 81.0 °F 85.2 °F 72.0 °F 74% 29.96 in 7.0 mi Calm Calm - N/A   Clear
7:36 PM 80.6 °F 85.4 °F 73.4 °F 79% 29.98 in 8.0 mi Calm Calm - N/A Thunderstorm Partly Cloudy
7:47 PM 78.8 °F - 73.4 °F 83% 30.05 in 1.5 mi West 19.6 mph 32.2 mph 0.10 in Rain , Thunderstorm Thunderstorms and Rain
7:50 PM 77.0 °F - 75.2 °F 94% 30.05 in 0.8 mi West 8.1 mph 32.2 mph 0.19 in Rain , Thunderstorm Heavy Thunderstorms and Rain
7:52 PM 77.0 °F - 75.0 °F 94% 30.05 in 0.8 mi West 10.4 mph 32.2 mph 0.21 in Rain , Thunderstorm Heavy Thunderstorms and Rain
8:00 PM 73.4 °F - 69.8 °F 88% 30.06 in 1.5 mi SW 5.8 mph 19.6 mph 0.06 in Rain , Thunderstorm Light Thunderstorms and Rain
8:09 PM 73.4 °F - 69.8 °F 88% 30.07 in 2.5 mi Calm Calm - 0.10 in Rain , Thunderstorm Thunderstorms and Rain
8:18 PM 73.4 °F - 71.6 °F 94% 30.07 in 5.0 mi NNW 4.6 mph - 0.11 in Rain , Thunderstorm Light Thunderstorms and Rain
8:39 PM 73.4 °F - 66.2 °F 78% 30.08 in 5.0 mi Variable 4.6 mph - 0.13 in Rain Light Rain
8:52 PM 72.0 °F - 70.0 °F 93% 30.07 in 8.0 mi SW 8.1 mph - 0.14 in Rain , Thunderstorm Light Rain
9:15 PM 71.6 °F - 68.0 °F 88% 30.09 in 6.0 mi West 3.5 mph - 0.02 in Rain Light Rain
9:52 PM 69.1 °F - 68.0 °F 96% 30.08 in 7.0 mi Calm Calm - 0.05 in Rain Light Rain
10:52 PM 69.1 °F - 66.9 °F 93% 30.01 in 10.0 mi Calm Calm - 0.01 in   Mostly Cloudy
11:06 PM 68.0 °F - 66.2 °F 94% 30.00 in 9.0 mi Variable 3.5 mph - N/A   Mostly Cloudy
11:52 PM 68.0 °F - 66.0 °F 93% 29.99 in 10.0 mi Calm Calm - N/A   Clear